This demonstration page uses our WeatherBlox Daily Observations layout. Learn more.

Left ArrowRight Arrow

36.17497, -115.13722

Hourly Observations for May 20, 2017

Temp ( °F °C ) Dew Point ( °F °C ) Humidity (%) Winds ( mph kmh ) Pressure ( in mb ) Visibility ( mi km ) Precip ( " mm )
12:53 am 00:53 Clear 66 18.9 30 -1.1 26 26 NW 8 13 29.99 1016 10 16 0.00 0.00
1:53 am 01:53 Clear 65 18.3 30 -1.1 27 27 WNW 3 6 29.99 1016 10 16 0.00 0.00
2:53 am 02:53 Clear 63 17.2 32 0 31 31 W 3 6 29.99 1016 10 16 0.00 0.00
3:53 am 03:53 Clear 64 17.8 31 -0.6 29 29 SW 5 7 29.99 1016 10 16 0.00 0.00
4:53 am 04:53 Clear 63 17.2 29 -1.7 28 28 SSW 5 7 30.00 1016 10 16 0.00 0.00
5:53 am 05:53 Sunny 64 17.8 29 -1.7 27 27 W 5 7 30.01 1016 10 16 0.00 0.00
6:53 am 06:53 Sunny 64 17.8 32 0 30 30 NNW 5 7 30.03 1017 10 16 0.00 0.00
7:53 am 07:53 Sunny 70 21.1 30 -1.1 23 23 Calm 30.04 1017 10 16 0.00 0.00
8:53 am 08:53 Sunny 73 22.8 29 -1.7 19 19 Calm 30.04 1017 10 16 0.00 0.00
9:53 am 09:53 Sunny 76 24.4 30 -1.1 18 18 E 8 13 30.04 1017 10 16 0.00 0.00
10:53 am 10:53 Sunny 78 25.6 31 -0.6 18 18 ESE 8 13 30.03 1017 10 16 0.00 0.00
11:53 am 11:53 Sunny 80 26.7 29 -1.7 15 15 SSE 12 19 30.01 1016 10 16 0.00 0.00
12:53 pm 12:53 Sunny 82 27.8 28 -2.2 14 14 ESE 10 17 29.98 1015 10 16 0.00 0.00
1:53 pm 13:53 Sunny 83 28.3 27 -2.8 13 13 Calm 29.95 1014 10 16 0.00 0.00
2:53 pm 14:53 Sunny 84 28.9 26 -3.3 12 12 SE 8 13 29.93 1014 10 16 0.00 0.00
3:53 pm 15:53 Sunny 87 30.6 26 -3.3 11 11 NNE 6 9 29.90 1012 10 16 0.00 0.00
4:53 pm 16:53 Sunny 87 30.6 26 -3.3 11 11 NE 5 7 29.88 1012 10 16 0.00 0.00
5:53 pm 17:53 Sunny 86 30 26 -3.3 11 11 VRB 6 9 29.86 1011 10 16 0.00 0.00
6:53 pm 18:53 Sunny 85 29.4 26 -3.3 12 12 ESE 6 9 29.86 1011 10 16 0.00 0.00
7:53 pm 19:53 Clear 82 27.8 27 -2.8 13 13 ESE 6 9 29.86 1011 10 16 0.00 0.00
8:53 pm 20:53 Clear 81 27.2 29 -1.7 15 15 S 3 6 29.87 1012 10 16 0.00 0.00
9:53 pm 21:53 Clear 80 26.7 31 -0.6 17 17 Calm 29.88 1012 10 16 0.00 0.00
10:53 pm 22:53 Clear 75 23.9 33 0.6 22 22 NNW 3 6 29.89 1012 10 16 0.00 0.00
11:53 pm 23:53 Clear 74 23.3 34 1.1 23 23 NW 3 6 29.90 1012 10 16 0.00 0.00

Powered by AerisWeather